[[{"header":{"parameterUnit":"m.s-1","parameterCategory":1,"la1":30.2991,"la2":30.254,"lo1":-89.0895,"lo2":-89.0444,"dy":0.0017,"dx":0.0017,"nx":28,"ny":28,"refTime":"2025-03-01T03:00:00:Z","depth":0,"parameterNumber":2,"parameterNumberName":"U-component_of_WINDS"},"data":[0,0,0,0,0,0,0,0,0,0,0,0,0,0,0,0,0,0,0,0,0,0,0,0,0,0,0,0,0,0,0,0,0,0,0,0,0,0,0,0,0,0,0,0,0,0,0,0,0,0,0,0,0,0,0,0,0,0,-4.4621,-4.4622,0,-4.464,-4.464,-4.464,-4.4534,-4.4531,-4.4528,-4.4525,-4.4546,-4.4549,-4.4553,0,0,0,0,0,0,0,0,0,0,0,0,0,-4.4495,-4.4498,-4.4621,-4.4622,-4.4622,-4.464,-4.464,-4.4641,-4.4535,-4.4531,-4.4528,-4.4524,-4.4545,-4.4549,-4.4553,0,0,0,0,0,0,0,0,0,0,0,0,0,-4.4536,-4.4499,-4.4621,-4.4571,-4.4567,-4.464,-4.464,-4.4641,-4.4536,-4.4531,-4.4527,-4.4522,-4.4544,-4.4549,-4.4554,-4.4676,0,0,-4.4569,-4.4571,0,0,0,0,0,0,0,0,-4.4534,-4.4541,-4.4578,-4.4575,-4.457,-4.458,-4.4603,-4.4653,-4.4537,-4.4548,-4.4525,-4.452,-4.4561,-4.4565,-4.4578,-4.4677,-4.4678,-4.457,-4.4573,-4.4575,-4.4576,0,0,0,0,0,0,0,-4.4531,-4.4539,-4.4629,-4.4579,-4.4574,-4.4548,-4.4549,-4.4612,-4.458,-4.4546,-4.4539,-4.4542,-4.4558,-4.4574,-4.4578,-4.4678,-4.4569,-4.4574,-4.4577,-4.4579,-4.4879,-4.4884,0,0,0,0,0,0,-4.4535,-4.4538,-4.4628,-4.4629,-4.454,-4.4554,-4.4555,-4.4582,-4.4579,-4.4574,-4.4546,-4.4537,-4.4567,-4.4572,-4.4578,-4.4722,-4.4575,-4.458,-4.4582,-4.4874,-4.488,-4.4886,0,0,0,0,0,0,-4.4532,-4.4544,-4.4627,-4.4581,-4.459,-4.4561,-4.4592,-4.4584,-4.46,-4.4579,-4.4572,-4.4568,-4.4564,-4.4571,-4.4653,-4.4721,-4.4582,-4.4586,-4.4869,-4.4876,-4.4883,-4.5011,0,0,0,0,0,0,-4.4529,-4.4544,-4.459,-4.4583,-4.4593,-4.4702,-4.4596,-4.4588,-4.4608,-4.4597,-4.4597,-4.4593,-4.4561,-4.4646,-4.4658,-4.4726,-4.459,-4.4862,-4.4872,-4.4881,-4.5001,-4.5022,-4.504,0,0,0,0,0,-4.4525,-4.4625,-4.4593,-4.4604,-4.465,-4.4706,-4.4711,-4.4672,-4.4614,-4.4661,-4.4647,-4.4593,-4.4712,-4.4655,-4.4667,-4.4738,-4.4858,-4.4869,-4.488,-4.4992,-4.5018,-4.504,0,0,0,0,0,0,-4.4641,-4.4623,-4.4587,-4.4688,-4.4699,-4.4688,-4.4745,-4.47,-4.4729,-4.4717,-4.4667,-4.4668,-4.4758,-4.4756,-4.4693,-4.4857,-4.4775,-4.4789,-4.4855,-4.488,-4.4899,-4.4899,-4.4595,0,0,0,0,0,-4.4678,-4.4725,-4.4707,-4.4797,-4.4805,-4.4774,-4.4797,-4.4766,-4.4775,-4.478,-4.4772,-4.4784,-4.4824,-4.4851,-4.4887,-4.4999,-4.4998,-4.5054,-4.5074,-4.509,-4.5104,-4.5164,-4.5189,-4.4922,-4.4922,-4.4922,0,0,-4.4755,-4.4752,-4.4784,-4.4821,-4.4825,-4.4876,-4.4779,-4.4836,-4.4872,-4.4788,-4.4865,-4.486,-4.487,-4.4968,-4.5011,-4.4969,-4.5177,-4.5104,-4.5118,-4.5122,-4.5178,-4.5203,-4.5225,-4.493,-4.4928,-4.4927,0,0,-4.4922,-4.4924,-4.5,-4.5007,-4.5015,-4.4994,-4.5013,-4.5008,-4.5002,-4.5078,-4.5016,-4.5059,-4.5128,-4.5138,-4.5153,-4.5324,-4.5275,-4.5336,-4.544,-4.55,-4.5521,-4.5539,-4.5601,-4.5624,-4.5349,-4.535,-4.535,0,-4.5018,-4.509,-4.5045,-4.5106,-4.5124,-4.5049,-4.5127,-4.5136,-4.5156,-4.5171,-4.5123,-4.5209,-4.5211,-4.531,-4.5352,-4.5366,-4.5386,-4.5337,-4.5521,-4.5539,-4.5556,-4.5615,-4.5638,-4.5357,-4.5356,-4.5356,-4.5355,0,-4.5208,-4.5259,-4.5319,-4.5341,-4.5365,-4.5434,-4.54,-4.543,-4.5397,-4.5381,-4.546,-4.5459,-4.5493,-4.5514,-4.5481,-4.5609,-4.5583,-4.553,-4.5446,-4.5589,-4.5644,-4.5666,-4.5368,-4.5365,-4.5363,-4.5361,0,0,-4.5449,-4.5444,-4.5467,-4.5476,-4.548,-4.5519,-4.5585,-4.5618,-4.5646,-4.5662,-4.5717,-4.5777,-4.5727,-4.5744,-4.5712,-4.5764,-4.5901,-4.5703,-4.5703,-4.5741,-4.6043,-4.6084,-4.6111,-4.5868,-4.5872,-4.5875,-4.6042,0,-4.5613,-4.5725,-4.5686,-4.58,-4.5848,-4.5778,-4.5835,-4.5844,-4.5831,-4.5869,-4.5854,-4.5899,-4.5829,-4.5839,-4.5887,-4.5874,-4.5961,-4.5861,-4.5919,-4.5922,-4.5921,-4.6139,-4.6183,-4.6341,-4.6063,-4.6067,-4.6069,0,-4.582,-4.5845,-4.5964,-4.596,-4.5979,-4.6031,-4.6059,-4.6096,-4.6105,-4.6092,-4.611,-4.6067,-4.6132,-4.6047,-4.6137,-4.607,-4.6091,-4.6088,-4.6093,-4.6099,-4.6006,-4.6152,-4.6391,-4.6415,-4.6102,-4.6099,-4.6097,0,-4.5986,-4.6049,-4.6129,-4.6138,-4.6136,-4.6174,-4.6175,-4.6179,-4.6202,-4.6226,-4.624,-4.6272,-4.629,-4.6315,-4.6282,-4.6224,-4.6377,-4.6289,-4.6369,-4.637,-4.6406,-4.6404,-4.6653,-4.6417,-4.6417,-4.6416,-4.6416,0,-4.6175,-4.6251,-4.6203,-4.6253,-4.6336,-4.629,-4.6374,-4.6367,-4.6371,-4.6418,-4.6359,-4.6404,-4.6357,-4.6398,-4.6373,-4.6451,-4.6459,-4.6451,-4.6444,-4.6458,-4.6459,-4.6472,-4.6461,-4.6423,-4.6421,-4.642,-4.6419,0,-4.6375,-4.6346,-4.6429,-4.6419,-4.6418,-4.6481,-4.6473,-4.6518,-4.65,-4.6561,-4.6572,-4.6545,-4.659,-4.6559,-4.6605,-4.6588,-4.6691,-4.6668,-4.6688,-4.6683,-4.6764,-4.6758,-4.7031,-4.7066,-4.6807,-4.6809,-4.6811,0,-4.6498,-4.6555,-4.6552,-4.6579,-4.6584,-4.6628,-4.6651,-4.6608,-4.6634,-4.6648,-4.6693,-4.6733,-4.6763,-4.6839,-4.6824,-4.6859,-4.6836,-4.693,-4.6841,-4.6854,-4.684,-4.6837,-4.6843,-4.6948,-4.6951,-4.6954,-4.6956,0,-4.672,-4.6703,-4.6738,-4.6769,-4.6797,-4.6819,-4.6836,-4.6862,-4.6818,-4.6851,-4.6897,-4.692,-4.6967,-4.7008,-4.7037,-4.7038,-4.6991,-4.6984,-4.7004,-4.702,-4.703,-4.7027,-4.6739,-4.6978,-4.6976,-4.6974,-4.6973,-4.6972,-4.6887,-4.6934,-4.694,-4.6981,-4.6989,-4.7006,-4.7049,-4.7036,-4.7073,-4.7108,-4.708,-4.7135,-4.7142,-4.7176,-4.7183,-4.7226,-4.7188,-4.7217,-4.7225,-4.7233,-4.7246,-4.7022,-4.7231,-4.723,-4.723,-4.7229,-4.7229,0,-4.7107,-4.7107,-4.7145,-4.7171,-4.7203,-4.7155,-4.7171,-4.7202,-4.7251,-4.7262,-4.7292,-4.7345,-4.7385,-4.7373,-4.7408,-4.7445,-4.7424,-4.7456,-4.7454,-4.7455,-4.7277,-4.7256,-4.7472,-4.7472,-4.7472,-4.7472,-4.7472,-4.7472,-4.7226,-4.7304,-4.7287,-4.7369,-4.7368,-4.7422,-4.7435,-4.7451,-4.746,-4.7522,-4.7554,-4.7545,-4.7547,-4.7582,-4.7617,-4.7612,-4.7629,-4.7669,-4.7657,-4.7491,-4.7467,-4.7444,-4.7425,-4.7672,-4.7673,-4.7831,-4.7833,-4.7834]},{"header":{"parameterUnit":"m.s-1","parameterCategory":1,"la1":30.2991,"la2":30.254,"lo1":-89.0895,"lo2":-89.0444,"dy":0.0017,"dx":0.0017,"nx":28,"ny":28,"refTime":"2025-03-01T03:00:00:Z","depth":0,"parameterNumber":3,"parameterNumberName":"V-component_of_WINDS"},"data":[0,0,0,0,0,0,0,0,0,0,0,0,0,0,0,0,0,0,0,0,0,0,0,0,0,0,0,0,0,0,0,0,0,0,0,0,0,0,0,0,0,0,0,0,0,0,0,0,0,0,0,0,0,0,0,0,0,0,-4.039,-4.039,0,-4.0442,-4.0442,-4.0443,-4.0416,-4.0414,-4.0413,-4.0412,-4.0462,-4.0465,-4.0468,0,0,0,0,0,0,0,0,0,0,0,0,0,-4.0264,-4.0267,-4.039,-4.039,-4.0391,-4.0442,-4.0442,-4.0443,-4.0416,-4.0414,-4.0412,-4.0411,-4.0462,-4.0465,-4.0468,0,0,0,0,0,0,0,0,0,0,0,0,0,-4.0318,-4.0268,-4.039,-4.0384,-4.0384,-4.0441,-4.0442,-4.0443,-4.0416,-4.0414,-4.0412,-4.041,-4.0461,-4.0464,-4.0468,-4.0534,0,0,-4.048,-4.0482,0,0,0,0,0,0,0,0,-4.0315,-4.0322,-4.0384,-4.0384,-4.0384,-4.042,-4.0417,-4.0474,-4.0417,-4.0404,-4.0411,-4.0409,-4.045,-4.0455,-4.0469,-4.0537,-4.0539,-4.0481,-4.0483,-4.0485,-4.0486,0,0,0,0,0,0,0,-4.0311,-4.032,-4.041,-4.0385,-4.0385,-4.0377,-4.0383,-4.0427,-4.0438,-4.0405,-4.0403,-4.041,-4.045,-4.0465,-4.047,-4.054,-4.0481,-4.0484,-4.0487,-4.0488,-4.0663,-4.0665,0,0,0,0,0,0,-4.0308,-4.0317,-4.0409,-4.0412,-4.0344,-4.0381,-4.0387,-4.0411,-4.0437,-4.0439,-4.0411,-4.0408,-4.0459,-4.0465,-4.0471,-4.055,-4.0485,-4.0489,-4.0491,-4.0661,-4.0664,-4.0666,0,0,0,0,0,0,-4.0306,-4.0317,-4.0406,-4.0364,-4.0375,-4.0386,-4.0412,-4.0413,-4.0428,-4.0442,-4.0444,-4.0425,-4.0458,-4.0466,-4.0519,-4.0552,-4.049,-4.0494,-4.0658,-4.0662,-4.0665,-4.0709,0,0,0,0,0,0,-4.0302,-4.0316,-4.0342,-4.0365,-4.0377,-4.0454,-4.0414,-4.0415,-4.0435,-4.0432,-4.0456,-4.0458,-4.0457,-4.0513,-4.0523,-4.0556,-4.0497,-4.0655,-4.066,-4.0664,-4.0705,-4.0713,-4.0721,0,0,0,0,0,-4.0298,-4.0352,-4.0343,-4.0354,-4.041,-4.0456,-4.0463,-4.0462,-4.0438,-4.0464,-4.0473,-4.0457,-4.0546,-4.0519,-4.0529,-4.0564,-4.0653,-4.0659,-4.0664,-4.0701,-4.0712,-4.0721,0,0,0,0,0,0,-4.0331,-4.0355,-4.0346,-4.0409,-4.0431,-4.0451,-4.0484,-4.0473,-4.0502,-4.0497,-4.0493,-4.0499,-4.0554,-4.0564,-4.0533,-4.0629,-4.0596,-4.0604,-4.0621,-4.0631,-4.0639,-4.0636,-4.05,0,0,0,0,0,-4.0346,-4.0383,-4.04,-4.0454,-4.0466,-4.0473,-4.0493,-4.049,-4.0512,-4.0521,-4.0534,-4.0555,-4.0588,-4.061,-4.0641,-4.0705,-4.071,-4.0735,-4.0743,-4.0749,-4.0756,-4.0791,-4.0802,-4.0683,-4.0683,-4.0683,0,0,-4.0377,-4.0394,-4.0418,-4.0462,-4.0478,-4.0515,-4.0481,-4.0522,-4.0549,-4.0527,-4.0578,-4.0588,-4.0612,-4.0671,-4.0697,-4.0681,-4.079,-4.0756,-4.0761,-4.0764,-4.0797,-4.0808,-4.0818,-4.0687,-4.0686,-4.0685,0,0,-4.0453,-4.047,-4.0517,-4.0534,-4.056,-4.0564,-4.0575,-4.0597,-4.0603,-4.0655,-4.0639,-4.0671,-4.0727,-4.0745,-4.0761,-4.0843,-4.0829,-4.0853,-4.0896,-4.0929,-4.0939,-4.0947,-4.0976,-4.0987,-4.0859,-4.0859,-4.0859,0,-4.0488,-4.0544,-4.0542,-4.0584,-4.0603,-4.0586,-4.0633,-4.0649,-4.0684,-4.0697,-4.0678,-4.0749,-4.0764,-4.0826,-4.0846,-4.086,-4.0872,-4.085,-4.0938,-4.0946,-4.0954,-4.0981,-4.0992,-4.0862,-4.0862,-4.0861,-4.0861,0,-4.0586,-4.0625,-4.0659,-4.0694,-4.0717,-4.0761,-4.0765,-4.0788,-4.0783,-4.0789,-4.084,-4.0857,-4.0891,-4.0906,-4.0901,-4.0968,-4.0957,-4.0938,-4.0905,-4.0968,-4.0994,-4.1004,-4.0866,-4.0865,-4.0864,-4.0863,0,0,-4.0686,-4.0718,-4.0731,-4.0746,-4.0773,-4.0802,-4.0845,-4.0879,-4.0899,-4.0923,-4.0958,-4.1006,-4.0989,-4.1007,-4.1004,-4.1033,-4.1097,-4.1011,-4.1011,-4.1026,-4.1171,-4.1186,-4.1198,-4.1087,-4.1089,-4.1091,-4.1169,0,-4.0763,-4.084,-4.0838,-4.0908,-4.0944,-4.0927,-4.0964,-4.0984,-4.099,-4.102,-4.1027,-4.1061,-4.1036,-4.1047,-4.1075,-4.1083,-4.1126,-4.1077,-4.112,-4.1122,-4.1116,-4.1212,-4.1228,-4.1301,-4.118,-4.1181,-4.1183,0,-4.0865,-4.0893,-4.0967,-4.0988,-4.1003,-4.1036,-4.1067,-4.1096,-4.1118,-4.112,-4.1141,-4.1132,-4.1175,-4.114,-4.1198,-4.1165,-4.1182,-4.1188,-4.1191,-4.1195,-4.1157,-4.1219,-4.1324,-4.1336,-4.1198,-4.1197,-4.1196,0,-4.093,-4.0986,-4.1038,-4.1051,-4.1077,-4.1101,-4.1113,-4.1133,-4.1153,-4.1179,-4.1192,-4.1223,-4.1239,-4.1263,-4.1263,-4.1237,-4.1321,-4.1286,-4.1324,-4.1324,-4.1343,-4.1342,-4.1453,-4.1354,-4.1353,-4.1353,-4.1353,0,-4.1018,-4.1064,-4.1068,-4.11,-4.115,-4.1147,-4.1197,-4.1206,-4.1224,-4.1256,-4.1243,-4.1273,-4.1271,-4.1301,-4.1301,-4.1349,-4.1357,-4.136,-4.1359,-4.1361,-4.1361,-4.1373,-4.1368,-4.1356,-4.1355,-4.1355,-4.1354,0,-4.11,-4.1105,-4.116,-4.118,-4.1186,-4.1222,-4.1239,-4.1268,-4.1273,-4.1314,-4.1324,-4.1331,-4.1366,-4.1368,-4.1408,-4.1408,-4.1467,-4.146,-4.146,-4.1459,-4.1497,-4.1494,-4.162,-4.1636,-4.1525,-4.1526,-4.1527,0,-4.1156,-4.1191,-4.1215,-4.1236,-4.125,-4.1284,-4.1305,-4.1302,-4.1324,-4.1351,-4.1378,-4.1412,-4.1439,-4.1496,-4.1504,-4.1535,-4.1529,-4.1571,-4.1534,-4.1535,-4.1531,-4.1529,-4.1532,-4.1579,-4.158,-4.1581,-4.1582,0,-4.1255,-4.1256,-4.1287,-4.1318,-4.1343,-4.1368,-4.1391,-4.1409,-4.1409,-4.1434,-4.147,-4.1491,-4.1533,-4.1567,-4.1596,-4.1607,-4.1595,-4.1594,-4.1604,-4.1607,-4.1606,-4.1607,-4.148,-4.1591,-4.159,-4.159,-4.1589,-4.1589,-4.1326,-4.1357,-4.1378,-4.1413,-4.143,-4.1451,-4.148,-4.1489,-4.1519,-4.1553,-4.1549,-4.159,-4.1609,-4.1648,-4.1661,-4.1692,-4.1678,-4.1693,-4.1697,-4.1701,-4.1705,-4.16,-4.1697,-4.1697,-4.1697,-4.1697,-4.1697,0,-4.1425,-4.1438,-4.147,-4.1502,-4.153,-4.1516,-4.154,-4.1563,-4.1599,-4.1619,-4.1646,-4.1687,-4.172,-4.173,-4.1762,-4.1784,-4.1779,-4.1793,-4.1791,-4.1794,-4.1716,-4.1704,-4.1796,-4.1796,-4.1796,-4.1796,-4.1796,-4.1796,-4.148,-4.153,-4.1533,-4.1592,-4.1604,-4.1644,-4.1659,-4.1678,-4.1694,-4.1741,-4.1768,-4.1775,-4.1791,-4.1823,-4.1852,-4.1854,-4.1867,-4.1883,-4.1883,-4.181,-4.18,-4.179,-4.1779,-4.1885,-4.1885,-4.1958,-4.1959,-4.1959]}]]